Location: Newark
(48.8833°N, 0.9236°W)
Time: 19:30:57
(UTC+00:00)

Transit 4A - Pass Details

Date: 01 December 2019
Orbit: 870 x 975 km, 66.8° (Epoch: 12 December)

Event Time Altitude Azimuth Distance (km) Brightness Sun altitude
Exits shadow 03:47:31 19° 142° (SE) 1,964 9.8 -36.6°
Drops below altitude 10° 03:49:00 10° 143° (SE) 2,512 10.4 -36.3°
Sets 03:51:28 0° 144° (SE) 3,445 11.2 -35.9°
